Poplar Bluff, MO

9:45 PM CST on December 11, 2019 (GMT -0600)
Poplar Bluff Municipal

Weather History for KPOF - November, 2019

Change the Weather History Date:

Tuesday, November 19, 2019

  Actual Average Record
Temperature  
Mean Temperature 52 °F 46 °F  
Max Temperature 66 °F 56 °F 80 °F (1942)
Min Temperature 37 °F 36 °F 17 °F (1951)
Degree Days  
Heating Degree Days 13 19  
Month to date heating degree days 463 292  
Since 1 July heating degree days 715 545  
Cooling Degree Days 0 0  
Month to date cooling degree days 0 0  
Year to date cooling degree days 1830 1561  
Growing Degree Days 2 (Base 50)    
Moisture  
Dew Point 36 °F    
Average Humidity 68    
Maximum Humidity 93    
Minimum Humidity 28    
Precipitation  
Precipitation T in 0.17 in 2.10 in (1988)
Month to date precipitation 2.90 3.34  
Year to date precipitation 63.63 42.55  
Sea Level Pressure  
Sea Level Pressure 29.88 in    
Wind  
Wind Speed 5 mph ()    
Max Wind Speed 20 mph    
Max Gust Speed 30 mph    
Visibility 9.2 miles    
Events      
T = Trace of Precipitation, MM = Missing Value Source: Averaged Metar Reports

Daily Weather History Graph

Daily Weather History Graph

Search for Another Location

Airport or City:

Astronomy

Nov. 19, 2019 Rise Set
Actual Time 6:43 AM CST 4:49 PM CST
Civil Twilight 6:15 AM CST 5:17 PM CST
Nautical Twilight 5:43 AM CST 5:48 PM CST
Astronomical Twilight 5:13 AM CST 6:19 PM CST
Moon 11:43 PM CST (11/19) 12:54 PM CST (11/19)
Length of Visible Light 11h 02m
Length of Day
10h 06m
Waning Gibbous, 51% of the Moon is Illuminated
Nov 19
Waning Gibbous
Nov 19
Last Quarter
Nov 26
New
Dec 4
First Quarter
Dec 11
Full

Hourly Weather History & Observations

Time (CST) Temp. Windchill Dew Point Humidity Pressure Visibility Wind Dir Wind Speed Gust Speed Precip Events Conditions
12:53 AM 46.0 °F 43.1 °F 41.0 °F 83% 29.75 in 10.0 mi South 5.8 mph - N/A   Mostly Cloudy
1:53 AM 44.1 °F 42.5 °F 41.0 °F 89% 29.75 in 10.0 mi SE 3.5 mph - 0.00 in   Mostly Cloudy
2:53 AM 44.1 °F 41.5 °F 41.0 °F 89% 29.75 in 10.0 mi SSE 4.6 mph - 0.00 in   Mostly Cloudy
3:53 AM 41.0 °F - 39.0 °F 93% 29.75 in 10.0 mi Calm Calm - N/A   Partly Cloudy
4:19 AM 41.0 °F - 37.9 °F 89% 29.75 in 1.8 mi Calm Calm - N/A   Clear
4:29 AM 39.0 °F - 37.0 °F 93% 29.75 in 3.0 mi Calm Calm - N/A   Clear
4:53 AM 39.0 °F 35.7 °F 37.0 °F 93% 29.76 in 6.0 mi WSW 4.6 mph - N/A   Clear
5:53 AM 39.9 °F 35.8 °F 37.9 °F 93% 29.78 in 10.0 mi West 5.8 mph - N/A   Clear
6:53 AM 39.0 °F 35.7 °F 37.0 °F 93% 29.81 in 9.0 mi WSW 4.6 mph - N/A   Clear
7:53 AM 45.0 °F 41.8 °F 39.9 °F 82% 29.83 in 9.0 mi NW 5.8 mph - N/A   Clear
8:53 AM 51.1 °F - 42.1 °F 71% 29.86 in 10.0 mi NW 18.4 mph 26.5 mph N/A   Clear
9:53 AM 53.1 °F - 41.0 °F 64% 29.87 in 10.0 mi NW 16.1 mph - N/A   Clear
10:53 AM 57.9 °F - 42.1 °F 56% 29.88 in 10.0 mi WNW 10.4 mph - N/A   Clear
11:53 AM 62.1 °F - 37.9 °F 41% 29.88 in 10.0 mi NW 10.4 mph 21.9 mph N/A   Clear
12:53 PM 64.9 °F - 35.1 °F 33% 29.88 in 10.0 mi WNW 10.4 mph - N/A   Clear
1:53 PM 66.0 °F - 33.1 °F 29% 29.90 in 10.0 mi WNW 10.4 mph 25.3 mph N/A   Clear
2:53 PM 64.9 °F - 30.9 °F 28% 29.91 in 10.0 mi NW 19.6 mph 29.9 mph N/A   Clear
3:53 PM 64.0 °F - 32.0 °F 30% 29.94 in 10.0 mi NNW 8.1 mph - N/A   Clear
4:53 PM 61.0 °F - 30.0 °F 31% 29.95 in 10.0 mi WNW 5.8 mph - N/A   Clear
5:53 PM 55.9 °F - 28.9 °F 36% 29.98 in 10.0 mi WNW 3.5 mph - N/A   Clear
6:53 PM 48.9 °F - 30.9 °F 50% 30.00 in 10.0 mi Calm Calm - N/A   Clear
7:53 PM 45.0 °F - 37.0 °F 74% 30.01 in 10.0 mi Calm Calm - N/A   Clear
8:53 PM 41.0 °F - 34.0 °F 76% 30.02 in 10.0 mi Calm Calm - N/A   Clear
9:53 PM 39.9 °F - 34.0 °F 79% 30.02 in 10.0 mi Calm Calm - N/A   Clear
10:53 PM 39.0 °F - 34.0 °F 82% 30.04 in 10.0 mi Calm Calm - N/A   Clear
11:53 PM 37.9 °F - 35.1 °F 89% 30.05 in 10.0 mi Calm Calm - N/A   Clear